When you browse on this site, cookies collect data to enhance your experience and personalize the content and advertising you see.
Visit our Privacy Policy to learn more. By continuing to use the site, you agree to this use of cookies and data.
  • In Slovakia
  • List of Countries
  • For 7 days
  • Water Temperature
  • Satellite Maps
  • Weather Map
  • Weather Widgets
  • user-avatar
    Login

    Hourly Weather Batina

    Today, 24 July, Wednesday

    Time Temperature Precipitation Wind Pressure Humidity
    00:00 +25°C° 0 mm 1 mps 673 mmHg 38%
    01:00 +24°C° 0 mm 2 mps 672 mmHg 39%
    02:00 +24°C° 0 mm 2 mps 672 mmHg 40%
    03:00 +24°C° 0 mm 2 mps 672 mmHg 41%
    04:00 +24°C° 0 mm 2 mps 672 mmHg 39%
    05:00 +25°C° 0 mm 2 mps 672 mmHg 37%
    06:00 +26°C° 0 mm 3 mps 673 mmHg 35%
    07:00 +27°C° 0 mm 3 mps 673 mmHg 30%
    08:00 +29°C° 0 mm 3 mps 674 mmHg 26%
    09:00 +32°C° 0 mm 4 mps 674 mmHg 22%
    10:00 +33°C° 0 mm 4 mps 674 mmHg 20%
    11:00 +34°C° 0 mm 4 mps 674 mmHg 19%
    12:00 +35°C° 0 mm 4 mps 674 mmHg 18%
    13:00 +35°C° 0 mm 5 mps 674 mmHg 18%
    14:00 +35°C° 0 mm 5 mps 674 mmHg 17%
    15:00 +35°C° 0 mm 6 mps 673 mmHg 17%
    16:00 +35°C° 0 mm 5 mps 673 mmHg 18%
    17:00 +34°C° 0 mm 5 mps 673 mmHg 19%
    18:00 +33°C° 0 mm 5 mps 673 mmHg 20%
    19:00 +32°C° 0 mm 4 mps 673 mmHg 23%
    20:00 +29°C° 0 mm 3 mps 672 mmHg 26%
    21:00 +28°C° 0 mm 2 mps 672 mmHg 30%
    22:00 +27°C° 0 mm 1 mps 672 mmHg 32%
    23:00 +26°C° 0 mm 1 mps 672 mmHg 34%

    Tomorrow, 25 July, Thursday

    Time Temperature Precipitation Wind Pressure Humidity
    00:00 +25°C° 0 mm 1 mps 671 mmHg 36%
    01:00 +25°C° 0 mm 1 mps 671 mmHg 36%
    02:00 +25°C° 0 mm 1 mps 671 mmHg 36%
    03:00 +24°C° 0 mm 1 mps 671 mmHg 36%
    04:00 +25°C° 0 mm 1 mps 671 mmHg 34%
    05:00 +26°C° 0 mm 2 mps 672 mmHg 31%
    06:00 +28°C° 0 mm 2 mps 672 mmHg 29%
    07:00 +29°C° 0 mm 3 mps 673 mmHg 25%
    08:00 +32°C° 0 mm 4 mps 673 mmHg 22%
    09:00 +34°C° 0 mm 6 mps 674 mmHg 18%
    10:00 +35°C° 0 mm 6 mps 674 mmHg 17%
    11:00 +35°C° 0 mm 6 mps 674 mmHg 15%
    12:00 +36°C° 0 mm 7 mps 674 mmHg 14%
    13:00 +36°C° 0 mm 6 mps 673 mmHg 14%
    14:00 +36°C° 0 mm 6 mps 673 mmHg 14%
    15:00 +36°C° 0 mm 6 mps 672 mmHg 14%
    16:00 +36°C° 0 mm 5 mps 672 mmHg 14%
    17:00 +35°C° 0 mm 4 mps 672 mmHg 15%
    18:00 +35°C° 0 mm 3 mps 672 mmHg 15%
    19:00 +32°C° 0 mm 2 mps 672 mmHg 19%
    20:00 +30°C° 0 mm 1 mps 672 mmHg 24%
    21:00 +25°C° 0 mm 0 mps 671 mmHg 28%
    22:00 +27°C° 0 mm 1 mps 671 mmHg 29%
    23:00 +26°C° 0 mm 1 mps 671 mmHg 30%

    Day after tomorrow, 26 July, Friday

    Time Temperature Precipitation Wind Pressure Humidity
    00:00 +26°C° 0 mm 1 mps 671 mmHg 31%
    01:00 +25°C° 0 mm 1 mps 671 mmHg 30%
    02:00 +25°C° 0 mm 1 mps 670 mmHg 29%
    03:00 +25°C° 0 mm 2 mps 670 mmHg 27%
    04:00 +26°C° 0 mm 2 mps 671 mmHg 26%
    05:00 +27°C° 0 mm 2 mps 671 mmHg 24%
    06:00 +28°C° 0 mm 2 mps 671 mmHg 23%
    07:00 +30°C° 0 mm 3 mps 672 mmHg 20%
    08:00 +33°C° 0 mm 4 mps 672 mmHg 18%
    09:00 +35°C° 0 mm 5 mps 673 mmHg 15%
    10:00 +36°C° 0 mm 5 mps 673 mmHg 14%
    11:00 +37°C° 0 mm 5 mps 672 mmHg 13%
    12:00 +38°C° 0 mm 6 mps 672 mmHg 12%
    13:00 +39°C° 0 mm 6 mps 672 mmHg 12%
    14:00 +39°C° 0 mm 6 mps 672 mmHg 12%
    15:00 +39°C° 0 mm 7 mps 671 mmHg 13%
    16:00 +38°C° 0 mm 6 mps 671 mmHg 14%
    17:00 +36°C° 0 mm 6 mps 671 mmHg 16%
    18:00 +35°C° 0 mm 6 mps 671 mmHg 17%
    19:00 +33°C° 0 mm 4 mps 671 mmHg 21%
    20:00 +31°C° 0 mm 3 mps 671 mmHg 24%
    21:00 +29°C° 0 mm 2 mps 670 mmHg 28%
    22:00 +29°C° 0 mm 2 mps 670 mmHg 27%
    23:00 +28°C° 0 mm 2 mps 670 mmHg 27%

    27 July, Saturday

    Time Temperature Precipitation Wind Pressure Humidity
    00:00 +28°C° 0 mm 1 mps 669 mmHg 27%
    01:00 +28°C° 0 mm 2 mps 669 mmHg 27%
    02:00 +27°C° 0 mm 2 mps 668 mmHg 28%
    03:00 +27°C° 0 mm 2 mps 668 mmHg 28%
    04:00 +28°C° 0 mm 2 mps 668 mmHg 27%
    05:00 +29°C° 0 mm 2 mps 668 mmHg 25%
    06:00 +30°C° 0 mm 2 mps 669 mmHg 23%
    07:00 +33°C° 0 mm 4 mps 669 mmHg 21%
    08:00 +34°C° 0 mm 6 mps 670 mmHg 18%
    09:00 +37°C° 0 mm 8 mps 670 mmHg 16%
    10:00 +38°C° 0 mm 9 mps 670 mmHg 16%
    11:00 +38°C° 0 mm 9 mps 670 mmHg 16%
    12:00 +38°C° 0 mm 9 mps 670 mmHg 16%
    13:00 +38°C° 0 mm 9 mps 669 mmHg 16%
    14:00 +38°C° 0 mm 9 mps 669 mmHg 16%
    15:00 +38°C° 0 mm 10 mps 669 mmHg 16%
    16:00 +37°C° 0 mm 9 mps 669 mmHg 16%
    17:00 +35°C° 0 mm 9 mps 668 mmHg 15%
    18:00 +34°C° 0 mm 8 mps 668 mmHg 14%
    19:00 +30°C° 0 mm 6 mps 668 mmHg 19%
    20:00 +28°C° 0 mm 4 mps 668 mmHg 25%
    21:00 +26°C° 0 mm 1 mps 668 mmHg 30%
    22:00 +25°C° 0 mm 1 mps 668 mmHg 34%
    23:00 +24°C° 0 mm 1 mps 668 mmHg 38%

    28 July, Sunday

    Time Temperature Precipitation Wind Pressure Humidity
    00:00 +23°C° 0 mm 1 mps 667 mmHg 43%
    01:00 +22°C° 0 mm 1 mps 667 mmHg 45%
    02:00 +21°C° 0 mm 2 mps 667 mmHg 48%
    03:00 +20°C° 0 mm 2 mps 666 mmHg 50%
    04:00 +20°C° 0 mm 2 mps 667 mmHg 50%
    05:00 +21°C° 0 mm 3 mps 667 mmHg 51%
    06:00 +21°C° 0 mm 3 mps 668 mmHg 51%
    07:00 +24°C° 0 mm 3 mps 668 mmHg 43%
    08:00 +26°C° 0 mm 3 mps 669 mmHg 36%
    09:00 +27°C° 0 mm 3 mps 670 mmHg 28%
    10:00 +29°C° 0 mm 3 mps 670 mmHg 25%
    11:00 +30°C° 0 mm 3 mps 670 mmHg 23%
    12:00 +33°C° 0 mm 3 mps 671 mmHg 20%
    13:00 +33°C° 0 mm 3 mps 670 mmHg 19%
    14:00 +34°C° 0 mm 3 mps 670 mmHg 18%
    15:00 +35°C° 0 mm 3 mps 670 mmHg 17%
    16:00 +34°C° 0 mm 3 mps 670 mmHg 20%
    17:00 +33°C° 0 mm 4 mps 670 mmHg 22%
    18:00 +32°C° 0 mm 4 mps 670 mmHg 24%
    19:00 +29°C° 0 mm 4 mps 670 mmHg 37%
    20:00 +27°C° 0 mm 3 mps 670 mmHg 49%
    21:00 +25°C° 0 mm 3 mps 669 mmHg 62%
    22:00 +24°C° 0 mm 3 mps 669 mmHg 64%
    23:00 +24°C° 0 mm 2 mps 669 mmHg 67%

    29 July, Monday

    Time Temperature Precipitation Wind Pressure Humidity
    00:00 +23°C° 0 mm 1 mps 669 mmHg 69%
    01:00 +23°C° 0 mm 1 mps 669 mmHg 67%
    02:00 +22°C° 0 mm 1 mps 669 mmHg 65%
    03:00 +22°C° 0 mm 1 mps 669 mmHg 63%
    04:00 +23°C° 0 mm 1 mps 669 mmHg 61%
    05:00 +23°C° 0 mm 1 mps 670 mmHg 60%
    06:00 +22°C° 0 mm 0 mps 670 mmHg 58%
    07:00 +25°C° 0 mm 1 mps 671 mmHg 52%
    08:00 +27°C° 0 mm 2 mps 671 mmHg 46%
    09:00 +29°C° 0 mm 2 mps 672 mmHg 40%
    10:00 +30°C° 0 mm 3 mps 672 mmHg 35%
    11:00 +33°C° 0 mm 4 mps 672 mmHg 31%
    12:00 +34°C° 0 mm 5 mps 673 mmHg 27%
    13:00 +35°C° 0 mm 5 mps 672 mmHg 25%
    14:00 +35°C° 0 mm 5 mps 672 mmHg 23%
    15:00 +36°C° 0 mm 6 mps 672 mmHg 22%
    16:00 +34°C° 0 mm 5 mps 671 mmHg 25%
    17:00 +33°C° 0 mm 5 mps 671 mmHg 29%
    18:00 +30°C° 0 mm 4 mps 671 mmHg 33%
    19:00 +29°C° 0 mm 4 mps 671 mmHg 38%
    20:00 +27°C° 0 mm 4 mps 671 mmHg 43%
    21:00 +25°C° 0 mm 4 mps 671 mmHg 48%
    22:00 +25°C° 0 mm 3 mps 670 mmHg 49%
    23:00 +24°C° 0 mm 2 mps 670 mmHg 51%
    Show more